GW4947 Weather Reports


time (UTC)temp
F
wind
direction
speed
knots
gust
knots
rain 1hr
in
rain 24hr
in
rain mn
in
humidity
%
barometer
mb
20260505014822 77 125 0.9 0.9 0.00 0.00 0.06 87 1009.0
20260505014324 77 132 0.9 0.9 0.00 0.00 0.06 87 1009.0
20260505013822 77 142 0.9 0.9 0.00 0.00 0.06 86 1009.0
20260505013323 77 131 0.9 0.9 0.00 0.00 0.06 86 1009.0
20260505012822 77 136 0.9 0.9 0.00 0.00 0.06 86 1008.0
20260505012322 77 135 0.9 1.7 0.00 0.00 0.06 85 1009.0
20260505011822 77 140 0.9 0.9 0.00 0.00 0.06 85 1008.0
20260505011322 77 139 0.9 0.9 0.00 0.00 0.06 85 1009.0
20260505010823 77 169 0.9 1.7 0.00 0.00 0.06 84 1008.0
20260505010323 77 136 0.0 0.0 0.00 0.00 0.06 84 1009.0
20260505005823 77 132 0.9 1.7 0.00 0.00 0.06 84 1008.0
20260505005325 77 118 0.0 0.0 0.00 0.00 0.06 84 1008.0
20260505004823 77 125 0.0 0.9 0.00 0.00 0.06 83 1008.0
20260505004322 77 123 0.0 0.0 0.00 0.00 0.06 83 1008.0
20260505003823 77 125 0.0 0.0 0.00 0.00 0.06 83 1008.0
20260505003322 77 136 0.0 0.9 0.00 0.00 0.06 83 1008.0
20260505002822 77 142 0.0 0.0 0.00 0.00 0.06 83 1008.0
20260505002322 77 166 1.7 2.6 0.00 0.00 0.06 82 1008.0
20260505001823 77 265 1.7 1.7 0.00 0.00 0.06 82 1008.0
20260505001322 77 165 1.7 1.7 0.00 0.00 0.06 83 1008.0
20260505000822 77 7 1.7 1.7 0.00 0.00 0.06 82 1007.0
20260505000322 77 65 1.7 1.7 0.00 0.00 0.06 83 1007.0
20260504235822 77 90 0.9 1.7 0.00 0.00 0.06 83 1007.0
20260504235322 77 92 0.9 1.7 0.00 0.00 0.06 84 1007.0
20260504234823 76 130 0.9 0.9 0.00 0.00 0.06 85 1007.0
20260504234322 76 224 0.9 0.9 0.00 0.00 0.06 86 1007.0
20260504233822 76 272 1.7 1.7 0.00 0.00 0.06 86 1007.0
20260504233323 76 98 1.7 1.7 0.00 0.00 0.06 87 1007.0
20260504232822 76 95 1.7 1.7 0.00 0.00 0.06 88 1007.0
20260504232323 75 349 1.7 1.7 0.00 0.00 0.06 89 1007.0
20260504231822 75 332 2.6 2.6 0.00 0.00 0.06 90 1007.0
20260504231324 75 84 1.7 1.7 0.00 0.00 0.06 90 1007.0
20260504230822 75 110 2.6 2.6 0.00 0.00 0.06 90 1007.0
20260504230323 75 95 1.7 1.7 0.00 0.00 0.06 90 1007.0
20260504225822 75 43 0.9 1.7 0.00 0.00 0.06 90 1007.0
20260504225323 75 80 0.9 0.9 0.00 0.00 0.06 89 1007.0
20260504224823 75 85 0.9 0.9 0.00 0.00 0.06 89 1007.0
20260504224327 75 116 0.9 0.9 0.00 0.00 0.06 89 1007.0
20260504223822 75 143 0.9 0.9 0.00 0.00 0.06 88 1007.0
20260504223322 75 121 0.0 0.9 0.00 0.00 0.06 88 1007.0
20260504222822 75 130 0.0 0.0 0.00 0.00 0.06 88 1007.0
20260504222322 76 140 0.9 0.9 0.00 0.00 0.06 88 1007.0
20260504221822 76 154 0.9 0.9 0.00 0.00 0.06 89 1007.0
20260504221322 76 161 0.9 0.9 0.00 0.00 0.06 90 1007.0
20260504220823 75 88 0.9 0.9 0.00 0.00 0.06 90 1007.0
20260504220322 75 128 0.0 0.0 0.00 0.00 0.06 90 1007.0
20260504215822 75 127 0.0 0.0 0.00 0.00 0.06 90 1007.0
20260504215324 75 121 0.0 0.0 0.00 0.00 0.06 90 1007.0
20260504214822 75 119 0.0 0.0 0.00 0.00 0.06 90 1007.0
20260504214323 75 147 0.9 1.7 0.00 0.00 0.06 90 1007.0
20260504213822 75 152 0.9 1.7 0.00 0.00 0.06 90 1007.0
20260504213322 75 129 0.0 0.0 0.00 0.00 0.06 91 1007.0
20260504212823 75 134 0.9 0.9 0.00 0.00 0.06 90 1007.0
20260504212322 75 119 0.0 0.0 0.00 0.00 0.06 90 1007.0
20260504211823 75 136 0.9 0.9 0.00 0.00 0.06 90 1007.0
20260504211322 75 124 0.0 0.0 0.07 0.00 0.06 89 1007.0
20260504210822 75 114 0.0 0.9 0.07 0.00 0.06 90 1007.0
20260504210322 75 129 0.0 0.9 0.00 0.00 0.05 90 1007.0
20260504205822 75 354 0.9 1.7 0.05 0.00 0.05 90 1008.0
20260504205322 75 287 1.7 1.7 0.12 0.00 0.05 90 1008.0
20260504204824 75 149 2.6 2.6 0.07 0.00 0.04 90 1008.0
20260504204322 75 116 0.0 0.9 0.07 0.00 0.04 90 1008.0
20260504203822 75 176 0.9 1.7 0.00 0.00 0.03 90 1008.0
20260504203322 75 279 1.7 1.7 0.05 0.00 0.03 89 1008.0
20260504202822 75 178 0.9 1.7 0.05 0.00 0.03 89 1008.0
20260504202324 75 135 0.9 0.9 0.00 0.00 0.02 89 1009.0
20260504201822 75 173 0.9 0.9 0.00 0.00 0.02 89 1008.0
20260504201322 75 186 0.9 1.7 0.00 0.00 0.02 89 1008.0
20260504200825 75 105 0.9 1.7 0.00 0.00 0.02 88 1008.0
20260504200322 75 130 0.9 0.9 0.00 0.00 0.02 88 1008.0
20260504195822 75 107 0.9 0.9 0.00 0.00 0.02 88 1008.0
20260504195323 75 72 0.9 1.7 0.00 0.00 0.02 88 1008.0
20260504194822 75 159 0.9 1.7 0.00 0.00 0.02 88 1008.0
20260504194324 75 122 0.9 0.9 0.07 0.00 0.02 88 1009.0
20260504193824 75 128 0.9 0.9 0.07 0.00 0.02 87 1009.0
20260504193323 75 139 0.9 1.7 0.00 0.00 0.01 87 1009.0
20260504192822 75 358 1.7 1.7 0.00 0.00 0.01 86 1009.0
20260504192323 75 33 0.9 1.7 0.00 0.00 0.01 86 1009.0
20260504191824 75 118 0.9 0.9 0.00 0.00 0.01 86 1009.0
20260504190835 76 136 1.7 1.7 0.05 0.00 0.01 85 1009.0
20260504190322 77 163 0.9 0.9 0.05 0.00 0.01 83 1009.0
20260504185824 77 119 0.9 1.7 0.00 0.00 0.00 82 1009.0
20260504185322 76 92 1.7 1.7 0.00 0.00 0.00 83 1009.0
20260504184822 76 109 0.9 0.9 0.00 0.00 0.00 82 1009.0
20260504184322 77 49 2.6 2.6 0.00 0.00 0.00 81 1009.0
20260504183822 77 261 4.3 5.2 0.00 0.00 0.00 80 1010.0
20260504183323 78 338 4.3 6.1 0.00 0.00 0.00 80 1010.0
20260504182822 78 307 2.6 4.3 0.00 0.00 0.00 81 1009.0
20260504182331 78 352 3.5 4.3 0.00 0.00 0.00 81 1009.0
20260504181823 77 54 1.7 2.6 0.00 0.00 0.00 82 1009.0
20260504181323 77 354 1.7 2.6 0.00 0.00 0.00 81 1009.0
20260504180825 77 56 2.6 2.6 0.00 0.00 0.00 81 1009.0
20260504180324 77 340 3.5 5.2 0.00 0.00 0.00 82 1009.0
20260504175822 76 3 5.2 7.0 0.00 0.00 0.00 83 1009.0
20260504175324 76 41 2.6 2.6 0.00 0.00 0.00 85 1009.0
20260504174823 76 16 2.6 2.6 0.00 0.00 0.00 85 1009.0
20260504174322 77 352 3.5 5.2 0.00 0.00 0.00 83 1009.0
20260504173822 77 283 2.6 2.6 0.00 0.00 0.00 82 1009.0
20260504173322 77 96 1.7 2.6 0.00 0.00 0.00 81 1009.0
20260504172823 78 245 4.3 6.1 0.00 0.00 0.00 78 1009.0
20260504172325 78 330 6.1 7.8 0.00 0.00 0.00 76 1009.0
20260504171823 78 3 3.5 4.3 0.00 0.00 0.00 78 1009.0
20260504171322 80 14 4.3 5.2 0.00 0.00 0.00 74 1009.0
20260504170824 80 171 2.6 4.3 0.00 0.00 0.00 74 1009.0
20260504170322 80 315 4.3 6.1 0.00 0.00 0.00 75 1009.0
20260504160322 87 136 0.9 0.9 0.00 0.00 0.00 78 1008.0
20260504150822 88 159 0.9 2.6 0.00 0.00 0.00 77 1007.0
20260504150322 88 137 1.7 1.7 0.00 0.00 0.00 77 1007.0
20260504141324 89 125 1.7 1.7 0.00 0.00 0.00 72 1007.0
20260504140825 89 138 0.9 1.7 0.00 0.00 0.00 71 1006.0
20260504140324 89 126 2.6 4.3 0.00 0.00 0.00 71 1006.0
20260504130325 93 112 0.9 0.9 0.00 0.00 0.00 61 1005.0
20260504110323 97 90 3.5 5.2 0.00 0.00 0.00 57 1003.0
20260504100322 98 133 0.9 0.9 0.00 0.00 0.00 52 1004.0
20260504081824 101 44 1.7 1.7 0.00 0.00 0.00 49 1006.0
20260504081322 100 127 0.9 0.9 0.00 0.00 0.00 50 1006.0
20260504080822 100 68 0.9 0.9 0.00 0.00 0.00 49 1006.0
20260504080323 99 89 0.9 0.9 0.00 0.00 0.00 50 1006.0
20260504070324 98 220 1.7 1.7 0.00 0.00 0.00 52 1007.0
20260504050322 94 151 1.7 2.6 0.00 0.00 0.00 55 1009.0
20260504045822 93 135 0.9 0.9 0.00 0.00 0.00 54 1009.0
20260504045322 92 65 0.9 1.7 0.00 0.00 0.00 55 1009.0
20260504044822 93 119 0.9 0.9 0.00 0.00 0.00 54 1009.0
20260504044322 93 121 0.9 0.9 0.00 0.00 0.00 55 1009.0
20260504043822 92 94 0.9 0.9 0.00 0.00 0.00 56 1009.0
20260504043322 92 139 0.9 0.9 0.00 0.00 0.00 55 1009.0
20260504042822 92 69 1.7 1.7 0.00 0.00 0.00 56 1009.0
20260504042322 91 329 1.7 1.7 0.00 0.00 0.00 56 1009.0
20260504041822 91 30 2.6 2.6 0.00 0.00 0.00 57 1009.0
20260504041322 91 136 0.9 0.9 0.00 0.00 0.00 57 1009.0
20260504040822 91 269 0.9 1.7 0.00 0.00 0.00 58 1009.0
20260504040323 91 54 0.9 1.7 0.00 0.00 0.00 57 1009.0
20260504035823 90 103 0.9 0.9 0.00 0.00 0.00 60 1009.0
20260504035322 90 68 1.7 2.6 0.00 0.00 0.00 59 1009.0
20260504034822 89 133 0.9 0.9 0.00 0.00 0.00 61 1009.0
20260504034322 89 125 1.7 2.6 0.00 0.00 0.00 60 1009.0
20260504033822 89 140 0.0 0.0 0.00 0.00 0.00 60 1009.0
20260504033323 89 149 1.7 1.7 0.00 0.00 0.00 61 1009.0
20260504032823 88 123 0.9 0.9 0.00 0.00 0.00 63 1009.0
20260504032323 88 192 1.7 2.6 0.00 0.00 0.00 62 1009.0
20260504031822 88 193 2.6 2.6 0.00 0.00 0.00 62 1009.0
20260504031322 87 88 0.9 1.7 0.00 0.00 0.00 63 1009.0
20260504030823 87 123 0.0 0.0 0.00 0.00 0.00 63 1009.0
20260504030323 87 93 0.9 0.9 0.00 0.00 0.00 63 1009.0
20260504025823 87 126 0.0 0.9 0.00 0.00 0.00 63 1009.0
20260504025322 86 125 0.0 0.0 0.00 0.00 0.00 64 1009.0
20260504024823 86 125 0.9 0.9 0.00 0.00 0.00 64 1009.0
20260504024322 85 117 0.0 0.9 0.00 0.00 0.00 65 1008.0
20260504023822 85 166 0.9 0.9 0.00 0.00 0.00 65 1009.0
20260504023322 84 31 0.9 0.9 0.00 0.00 0.00 66 1008.0
20260504022822 85 115 0.9 1.7 0.00 0.00 0.00 67 1008.0
20260504022322 85 209 1.7 1.7 0.00 0.00 0.00 66 1008.0
20260504021823 85 126 0.0 0.0 0.00 0.00 0.00 66 1008.0
20260504021322 84 127 0.0 0.0 0.00 0.00 0.00 68 1008.0
20260504020822 83 136 0.9 1.7 0.00 0.00 0.00 69 1008.0
20260504020323 83 126 0.0 0.9 0.00 0.00 0.00 68 1008.0
20260504015822 83 121 0.0 0.0 0.00 0.00 0.00 68 1008.0
20260504015322 83 130 0.9 0.9 0.00 0.00 0.00 68 1008.0